Overview Statistics Trail Chart Weather Telemetry Raw packets
 

This is the latest recevied weather packets stored in our database for station/object KW4UJ. If no packets are shown the sender has not sent any weather packets the latest 10 day(s).

<< 79 80 81 82 83 84 85 >>
Time Temp. Humidity Pressure Rain* Wind** Luminosity Snow
1788054882 22.22° C 78% 1022.8 hPa 0 mm - 0 W/m² -
1788054577 22.22° C 78% 1022.5 hPa 0 mm - 0 W/m² -
1788054273 22.22° C 78% 1022.6 hPa 0 mm - 0 W/m² -
1788053969 22.22° C 78% 1022.5 hPa 0 mm - 0 W/m² -
1788053664 22.22° C 77% 1022.6 hPa 0 mm - 0 W/m² -
1788053359 22.78° C 77% 1022.5 hPa 0 mm - 0 W/m² -
1788053055 22.78° C 76% 1022.3 hPa 0 mm - 0 W/m² -
1788052751 22.78° C 77% 1022.2 hPa 0 mm - 0 W/m² -
1788052446 22.78° C 77% 1022.4 hPa 0 mm - 0 W/m² -
1788052146 22.78° C 76% 1022.5 hPa 0 mm - 0 W/m² -
1788051841 22.78° C 75% 1022.2 hPa 0 mm - 0 W/m² -
1788051535 22.78° C 75% 1022.2 hPa 0 mm - 0 W/m² -
1788051234 22.78° C 74% 1022.2 hPa 0 mm - 0 W/m² -
1788050933 23.33° C 75% 1022 hPa 0 mm - 0 W/m² -
1788050628 22.78° C 75% 1021.9 hPa 0 mm - 0 W/m² -
1788050328 23.33° C 74% 1022 hPa 0 mm - 0 W/m² -
1788050022 23.33° C 73% 1022 hPa 0 mm - 0 W/m² -
1788049720 23.89° C 72% 1021.7 hPa 0 mm - 0 W/m² -
1788049416 23.89° C 72% 1021.9 hPa 0 mm - 0 W/m² -
1788049111 23.89° C 71% 1021.7 hPa 0 mm - 0 W/m² -
1788048806 23.89° C 70% 1021.9 hPa 0 mm - 0 W/m² -
1788048505 24.44° C 70% 1021.7 hPa 0 mm - 0 W/m² -
1788048204 24.44° C 69% 1021.9 hPa 0 mm - 0 W/m² -
1788047901 24.44° C 68% 1022.1 hPa 0 mm - 0 W/m² -
1788047596 25° C 68% 1021.6 hPa 0 mm - 1 W/m² -

* Rain latest hour (hover to see other rain measurements)
** Current wind speed in m/s (hover to see current wind gust speed)